Wind_Speed
30 32 33 32 34 33 30 30 30 28 27 26 25 25 26 26 27 27 26 26 26 26 26 26 26 26 25 24 24 23 22 21 21 21 22 21 20 19 18 17 17 16 15 15 15 15 15 14 14 15 15 14 14 14 15 16 16 16 16 16 15 14 13 12 11 10 10 10 9 9 8 7 7 9 9 8 8 8 8 8 9 10 10 9 8
37 35 35 33 35 34 31 31 31 29 28 27 26 26 26 27 27 26 26 26 26 26 26 25 25 25 24 24 23 22 22 22 23 23 23 21 20 18 17 17 16 15 15 15 15 15 15 14 13 14 14 13 13 14 15 15 16 16 16 16 15 14 14 12 11 10 9 9 8 8 7 5 5 8 9 8 8 9 9 9 10 10 9 8 8
39 37 36 34 36 34 31 31 32 30 29 27 26 26 27 27 27 27 26 26 25 25 25 25 24 24 23 23 23 24 24 24 24 23 22 20 19 18 17 16 15 15 14 15 15 16 15 14 13 13 13 13 13 14 14 15 16 16 16 16 16 14 13 12 11 10 9 7 6 6 6 5 6 8 9 9 9 9 9 9 9 10 9 8 8
39 38 37 35 36 35 32 32 32 31 29 28 27 26 27 27 27 27 26 26 26 25 25 24 24 24 24 24 24 25 25 24 23 23 21 19 18 17 16 15 15 15 14 15 15 15 14 14 13 12 13 13 13 13 14 15 15 15 16 15 14 13 12 11 9 9 8 8 7 5 4 5 8 9 8 8 8 9 9 9 9 8 8 7 7
41 39 38 37 36 35 32 32 32 31 30 28 27 27 27 27 27 27 26 26 26 25 25 25 24 24 24 25 25 24 24 23 23 22 21 19 18 17 16 15 15 14 14 14 14 14 13 13 12 12 13 13 12 12 13 13 13 13 12 11 10 9 9 8 7 6 6 6 7 6 5 5 7 8 7 7 8 8 8 9 9 8 8 7 7
42 40 39 38 36 35 32 33 33 31 30 29 28 27 27 27 27 26 26 26 26 25 25 25 24 24 24 25 24 24 24 23 22 21 21 19 18 17 16 15 15 14 14 14 13 13 13 12 12 13 13 13 12 12 11 11 11 10 9 8 8 7 7 6 5 5 4 4 5 6 6 5 6 8 8 7 7 7 6 7 7 7 7 6 6
42 40 39 39 38 36 33 34 33 32 31 29 28 27 27 27 26 26 26 26 25 25 24 24 24 24 24 24 24 24 23 22 21 21 20 19 17 16 15 15 15 14 13 13 12 12 12 12 13 13 13 13 12 11 11 10 9 9 8 7 7 7 6 6 4 3 3 3 4 5 6 5 7 9 8 7 6 5 5 6 6 7 7 6 6
41 41 40 40 39 37 34 35 33 32 31 29 29 28 28 27 26 26 26 25 25 24 24 24 24 24 23 23 23 23 22 21 21 21 19 18 17 16 15 15 15 14 13 12 11 12 12 12 13 12 12 13 12 11 10 9 9 9 8 7 7 6 6 5 5 3 1 2 3 4 5 4 6 9 8 6 5 5 6 6 6 6 6 6 6
41 41 40 40 40 37 34 35 33 32 32 30 29 28 28 27 27 26 26 25 25 25 24 24 23 23 23 23 23 22 22 21 20 20 19 18 16 16 16 15 14 13 11 11 11 12 12 12 12 12 13 13 12 11 9 8 8 8 8 7 7 6 6 5 5 4 2 1 2 3 3 3 4 8 7 6 5 4 5 5 6 5 5 5 5
41 40 39 40 40 36 34 36 34 33 32 30 29 28 28 27 27 26 26 25 25 25 24 24 23 23 23 23 22 22 22 22 20 20 19 17 16 15 15 14 13 12 11 10 10 11 11 12 13 13 13 13 12 10 8 7 7 8 8 8 7 6 6 5 4 4 4 3 2 2 3 3 3 6 6 4 5 4 5 5 5 6 5 5 5
41 39 39 40 40 36 35 37 34 33 32 30 30 29 28 27 27 26 26 26 26 26 25 24 23 23 23 23 22 21 22 21 20 19 18 16 15 15 14 14 14 12 10 9 9 10 11 12 14 13 12 11 11 10 8 7 7 8 8 8 8 8 6 5 4 4 5 4 3 3 3 3 2 4 4 2 4 4 4 5 5 5 5 5 4
40 38 38 39 39 36 37 37 35 34 32 31 29 29 28 28 27 26 26 26 26 26 25 24 23 23 22 22 22 21 21 21 20 18 17 16 15 14 13 13 13 13 11 10 9 10 11 12 13 12 11 10 10 9 7 7 7 8 8 8 10 10 9 6 5 6 5 5 4 3 3 3 3 4 4 1 2 4 4 5 4 4 4 4 4
38 35 36 38 39 37 38 37 35 34 32 31 30 29 28 28 28 27 27 26 26 26 25 24 23 23 22 22 21 21 21 20 19 18 16 15 14 13 12 12 12 11 11 10 10 11 11 12 12 12 10 9 9 8 6 6 7 7 8 9 10 12 12 10 7 5 5 5 4 3 3 3 3 3 3 2 1 2 3 3 3 4 4 4 4
34 33 35 38 38 36 37 37 35 34 32 32 30 30 29 28 28 27 27 26 27 26 25 24 24 23 23 22 21 21 21 20 19 17 16 15 14 12 11 10 9 9 9 9 10 11 12 12 11 11 10 8 8 7 6 5 6 7 7 8 9 11 12 12 9 5 4 4 3 2 2 3 2 2 3 1 0 0 1 2 3 3 3 4 4
30 32 34 37 37 34 33 34 34 33 32 31 30 30 29 28 28 27 27 27 27 26 25 24 23 23 22 22 22 21 20 19 18 16 15 14 13 12 10 9 8 8 8 8 9 11 11 11 11 10 9 8 7 6 5 4 5 6 6 6 7 8 10 10 9 6 5 5 4 3 2 1 1 2 2 2 1 1 1 0 2 3 3 3 3
27 30 32 34 34 33 32 31 31 31 31 31 30 29 28 28 28 28 27 27 27 26 24 23 23 23 22 22 21 20 19 19 17 15 14 14 12 11 9 8 7 7 7 7 8 9 10 10 10 9 9 8 7 6 5 3 4 4 4 4 5 6 8 8 8 7 6 5 5 4 4 3 2 1 1 1 1 1 2 1 1 2 2 2 2
25 28 30 31 31 32 31 30 29 29 29 29 28 28 28 28 27 28 27 27 27 25 24 23 22 22 22 21 21 19 18 18 17 15 14 13 12 10 9 7 6 6 6 7 8 8 9 9 9 8 8 7 6 5 4 3 2 2 2 3 4 5 6 7 6 7 7 7 7 5 5 6 4 3 1 1 0 1 2 3 2 1 1 1 1
25 27 29 30 30 30 30 30 29 29 28 28 27 27 27 27 27 27 27 27 26 24 23 23 22 21 21 20 20 19 18 17 16 15 13 12 11 10 9 7 6 5 5 7 8 8 8 8 8 8 7 6 5 4 4 2 2 1 1 2 4 5 6 6 5 5 6 8 9 8 6 5 6 6 3 1 1 1 3 4 3 2 1 1 0
25 26 27 29 30 29 29 30 29 29 29 28 27 26 26 26 27 26 25 25 25 24 23 23 22 21 20 19 19 18 17 16 15 14 13 12 11 10 9 7 5 4 5 8 9 8 8 9 9 8 6 5 5 4 3 2 2 1 1 2 4 5 6 6 5 4 4 6 8 9 9 5 6 7 5 3 2 3 4 4 4 4 3 3 2
27 27 27 28 29 29 29 30 29 29 29 29 28 26 26 26 27 26 25 24 23 23 23 22 21 21 19 19 18 18 17 15 14 13 13 13 11 10 9 7 5 3 5 8 10 9 9 9 9 8 7 5 5 4 4 3 2 2 3 4 5 6 7 7 6 4 4 5 6 7 8 7 4 6 6 4 4 4 5 5 6 6 6 5 4
27 28 28 29 29 29 30 30 29 29 28 28 28 27 26 26 27 25 24 24 23 22 22 21 20 20 19 19 18 18 17 16 14 13 13 12 11 10 10 8 6 4 5 9 11 10 9 9 9 9 8 6 6 5 4 3 2 4 5 5 6 6 7 7 5 4 4 5 6 6 7 7 4 5 6 4 5 5 5 6 6 7 8 7 7
28 28 28 30 30 30 30 30 29 29 28 28 28 28 26 27 27 25 24 24 23 22 22 21 21 20 20 19 19 18 18 16 15 14 13 12 11 11 11 9 6 4 5 9 11 11 9 9 9 9 8 7 6 5 3 2 3 4 4 5 6 7 7 6 5 4 4 5 5 6 6 6 4 5 5 4 6 5 6 7 7 8 9 9 8
29 30 29 30 31 31 31 31 30 29 29 28 28 28 27 28 28 25 24 25 24 23 23 22 21 21 20 20 19 19 18 17 16 14 13 12 12 12 11 9 7 5 5 8 10 11 10 9 9 9 8 6 5 3 2 2 2 3 4 5 6 6 7 6 6 5 5 5 5 5 6 5 4 5 5 4 6 6 6 7 8 9 9 9 8
29 30 30 30 31 32 32 31 31 30 29 28 27 27 27 29 29 27 26 25 25 24 24 22 21 21 20 20 19 18 17 16 15 14 14 13 13 13 12 11 9 7 6 7 9 10 10 9 9 8 7 5 4 3 3 2 2 2 3 5 6 6 6 6 6 5 5 5 4 4 5 5 3 4 5 4 5 6 6 7 8 8 8 8 8
27 29 30 31 32 32 33 32 31 31 30 29 28 28 27 28 29 28 27 26 25 25 24 23 22 21 20 20 19 17 17 16 15 15 15 15 15 15 13 12 10 8 7 7 8 9 10 9 8 8 6 5 3 2 3 2 2 2 3 4 4 3 4 5 5 5 4 4 3 4 4 4 3 3 4 4 4 5 5 6 7 6 7 7 7
27 29 30 32 32 32 32 32 32 31 30 29 29 29 28 29 29 28 28 27 26 26 25 23 23 21 20 19 18 17 16 16 16 16 16 16 16 16 14 13 11 10 8 7 7 9 9 9 9 7 6 4 2 2 3 3 2 2 4 4 3 2 3 5 5 5 4 4 3 3 2 2 2 2 3 3 3 3 3 4 4 5 6 7 6
27 28 29 31 32 32 32 32 32 31 30 29 29 29 29 30 29 29 29 28 27 27 26 25 24 22 21 19 18 17 17 17 17 17 17 17 17 16 15 14 13 11 9 8 8 8 9 9 8 7 5 3 1 2 2 2 2 3 4 4 3 3 5 6 5 5 4 4 2 2 2 2 2 2 3 3 2 2 1 2 3 4 5 6 6
26 27 29 32 33 32 33 32 32 32 30 29 29 29 30 30 29 29 29 29 28 27 27 26 24 23 22 20 18 17 17 18 18 18 18 18 18 17 16 15 14 12 11 10 9 9 9 9 8 7 5 2 1 1 1 0 2 4 4 4 4 4 6 7 6 6 4 2 1 1 2 2 2 3 4 3 2 1 0 2 3 3 4 5 5
26 28 30 32 33 33 33 32 32 32 31 30 30 30 30 30 29 29 29 29 28 27 27 26 25 24 23 21 19 18 18 18 18 17 17 18 18 17 16 15 14 13 12 12 11 10 10 10 9 7 4 2 1 1 1 1 3 4 5 4 4 4 5 5 4 3 2 1 1 1 1 2 3 4 4 2 3 2 2 2 2 3 3 4 4
27 29 30 32 34 33 33 33 32 32 31 31 31 30 30 31 30 30 30 29 28 27 27 27 26 25 24 22 19 18 18 18 17 17 16 16 16 16 15 14 13 13 13 13 11 11 11 10 9 6 3 2 2 1 1 3 4 5 5 4 2 2 3 3 1 1 2 3 3 2 0 3 4 3 2 3 4 2 3 3 2 2 2 3 4
28 29 31 32 33 34 34 33 32 32 32 32 31 30 30 31 30 30 30 29 29 28 28 28 27 26 24 22 20 18 18 18 17 17 15 14 14 14 13 13 12 12 13 13 12 11 11 11 8 5 4 3 3 1 3 5 5 4 3 2 0 1 2 2 2 2 3 4 4 2 2 3 3 3 3 4 4 3 4 3 1 0 1 3 4
29 30 31 32 33 34 34 32 31 31 31 31 31 30 30 31 30 30 29 29 28 28 28 28 27 26 24 23 21 19 19 18 18 17 15 14 13 12 12 12 12 11 12 12 11 11 11 10 8 5 4 4 3 2 4 5 4 3 2 2 2 2 2 2 3 3 3 3 3 2 3 3 3 3 4 6 5 4 3 2 1 1 1 2 3
28 29 29 30 32 33 33 31 31 31 31 30 30 29 30 30 29 29 29 28 28 28 28 27 25 25 24 24 22 20 20 19 18 18 16 14 13 12 12 11 11 10 10 10 10 12 12 10 8 5 5 4 3 3 3 3 2 2 2 2 2 2 1 2 3 3 3 3 2 1 4 3 3 3 4 5 4 4 3 2 2 2 1 3 3
26 28 29 29 30 30 31 31 30 32 31 30 30 29 29 29 29 29 29 28 28 28 28 26 25 24 24 24 22 21 21 19 19 18 17 15 14 13 13 11 10 10 10 10 10 12 12 10 8 6 6 5 4 4 2 1 1 1 2 2 2 2 1 1 2 3 4 4 3 1 4 5 4 4 5 5 4 5 5 4 3 1 2 3 2
27 29 30 30 30 30 30 31 31 32 32 31 31 28 28 29 30 29 29 29 29 28 28 27 25 24 24 24 23 22 22 20 19 19 18 16 15 14 14 12 10 10 10 10 10 11 11 9 8 7 7 6 6 5 4 3 2 2 2 2 3 3 2 1 2 4 4 2 0 4 6 6 5 6 7 7 7 7 6 5 3 3 3 3 3
29 30 30 30 30 30 31 31 31 32 32 31 32 29 27 30 31 30 29 30 29 29 27 26 26 24 24 23 24 23 23 21 20 20 19 17 16 15 14 12 11 11 10 9 10 11 10 9 8 8 8 7 7 6 5 5 4 3 4 4 6 5 3 3 2 3 3 2 3 5 6 7 8 9 9 9 9 8 6 5 4 4 4 4 4
30 31 31 31 31 31 31 31 33 34 32 31 32 31 29 30 31 30 30 31 30 29 28 27 25 24 24 24 24 24 23 22 21 21 20 17 16 15 13 12 12 11 10 10 10 10 10 9 8 7 7 8 8 7 6 6 4 5 6 6 6 4 4 3 2 2 3 4 5 6 7 9 10 11 10 10 10 8 6 5 5 4 4 3 3
30 31 31 32 32 32 32 32 33 34 33 32 32 32 30 30 31 31 30 31 30 29 28 27 25 25 24 25 25 25 24 22 21 21 20 18 16 15 12 11 12 12 12 11 10 10 10 9 9 8 9 9 10 8 6 5 4 5 6 5 3 3 4 2 1 3 5 5 6 7 10 12 11 11 10 9 8 7 6 5 5 4 3 2 3
29 30 31 32 32 32 32 32 33 33 33 32 32 32 31 30 30 29 28 29 28 28 28 28 26 26 25 25 26 25 24 22 21 21 21 18 16 15 13 12 13 13 13 13 11 10 10 10 10 10 10 10 9 8 6 5 3 3 3 2 2 2 3 2 2 4 5 5 7 10 12 12 11 10 9 8 7 6 6 6 5 4 4 3 3
28 30 31 31 32 32 32 32 33 33 33 32 31 32 32 30 28 27 27 27 27 27 28 28 28 26 25 26 27 26 24 22 21 21 21 19 17 16 14 13 14 14 14 14 13 12 11 12 12 12 12 11 9 7 6 4 3 1 2 3 0 2 2 3 4 5 5 5 8 11 12 11 10 10 9 7 7 6 6 6 5 4 4 4 3
27 30 31 31 32 32 32 33 33 33 33 32 31 31 31 30 28 27 27 26 26 26 27 29 29 27 26 26 27 25 24 23 22 22 22 21 19 17 16 15 16 16 15 15 15 13 12 13 14 14 13 12 10 8 6 5 3 2 2 5 6 6 4 4 4 5 7 8 9 11 11 11 11 10 10 9 8 8 7 6 6 5 5 4 3
28 31 32 32 32 33 34 34 34 33 33 32 31 31 30 29 27 26 25 24 25 26 26 28 29 27 26 26 26 24 24 24 23 22 22 23 22 21 20 18 18 17 16 16 16 15 14 15 15 14 13 12 10 8 7 6 3 3 3 5 7 8 8 6 5 7 9 9 9 11 11 11 12 12 12 11 10 9 8 8 7 6 5 4 4
28 31 32 32 32 33 34 35 34 34 34 33 31 30 29 28 26 25 25 23 24 26 26 26 26 26 25 25 25 24 23 24 23 22 22 22 23 24 23 21 20 18 17 17 17 16 16 16 16 15 14 13 11 9 9 7 5 5 4 3 2 3 5 7 9 8 8 9 9 11 12 12 13 14 13 12 11 11 10 9 8 7 6 5 6
27 30 31 32 34 34 35 34 34 35 34 33 32 31 30 28 27 25 25 24 23 25 25 25 26 26 25 25 25 24 23 23 23 22 21 21 23 24 24 22 21 20 18 17 16 17 17 17 16 16 15 14 12 10 9 8 7 5 3 2 1 2 1 3 9 12 8 9 10 10 12 14 15 15 14 14 13 12 11 10 8 7 7 8 9
28 31 33 35 35 35 35 34 35 35 34 34 33 31 29 28 26 24 24 24 22 23 24 25 26 27 26 26 25 24 24 23 22 21 21 21 22 22 22 21 21 20 18 16 15 16 17 17 16 17 18 16 13 11 9 9 8 7 5 2 2 1 1 3 4 10 10 11 11 11 13 15 15 15 15 16 15 13 11 10 9 8 9 10 10
30 32 35 35 34 34 35 34 35 35 34 35 34 32 29 27 26 24 23 22 20 22 25 26 27 28 27 26 25 25 24 23 22 21 21 21 21 20 20 21 22 20 18 16 15 15 16 17 18 19 19 18 15 12 11 10 9 8 8 6 4 3 4 5 3 4 9 12 12 12 13 14 15 15 16 16 15 13 11 10 10 10 11 12 12
31 32 33 34 34 35 35 35 35 35 35 35 34 33 30 28 28 26 24 23 22 22 24 26 27 27 27 26 26 25 24 24 22 21 21 22 21 20 20 22 23 21 19 17 16 16 16 17 18 20 19 18 16 14 13 12 10 9 8 7 5 4 9 8 4 3 3 7 10 12 13 12 14 17 18 17 15 13 12 11 11 11 12 13 12
31 32 33 35 36 36 36 35 34 34 35 35 35 33 31 29 28 28 27 28 27 25 24 25 25 26 26 26 25 24 24 23 22 22 22 21 20 19 19 21 23 22 20 18 17 16 17 19 19 20 20 19 18 16 14 14 13 11 9 8 6 6 9 9 8 7 4 2 4 8 10 12 15 18 18 16 14 13 12 12 12 12 12 13 13
31 33 35 35 35 35 35 34 34 34 35 36 35 34 33 30 30 30 29 29 28 26 24 24 24 25 25 25 24 24 24 23 23 23 22 21 20 19 19 21 22 22 20 19 17 17 19 20 19 19 18 17 16 15 14 15 14 13 11 10 8 8 8 7 9 8 5 4 2 3 8 11 13 15 16 15 14 13 13 12 12 12 12 12 12
30 32 32 32 33 34 35 34 34 34 35 36 35 35 33 32 32 32 30 28 26 24 23 23 25 25 25 24 24 24 24 24 24 23 22 21 21 20 20 21 22 21 20 19 17 18 19 18 18 17 16 14 13 14 14 13 14 14 13 11 11 10 7 5 7 7 6 5 4 5 8 9 9 10 12 15 14 13 12 12 11 11 11 11 11
26 28 29 31 32 34 35 35 34 34 35 35 35 36 34 34 34 34 32 29 26 24 23 23 24 24 24 24 24 24 24 23 23 23 22 22 22 22 21 22 22 21 20 18 18 18 18 17 18 17 18 17 14 15 16 13 13 14 13 13 13 11 9 7 9 10 7 5 6 7 8 9 10 10 11 13 14 13 12 11 10 10 10 10 10
Wind_Direction
183 183 175 171 172 168 162 158 157 157 155 152 150 148 145 144 142 140 140 139 139 139 139 139 140 140 139 138 136 135 132 130 128 126 123 120 117 115 116 117 119 118 117 115 115 114 114 113 115 118 116 117 120 123 121 120 119 118 118 116 113 110 108 103 99 96 94 92 89 84 75 69 50 50 63 72 74 72 81 86 88 92 87 81 82
178 179 173 169 172 168 163 159 158 158 156 154 151 150 147 145 144 142 141 140 141 140 140 140 139 138 136 135 133 131 129 127 126 123 119 117 118 119 120 120 121 119 118 117 116 117 115 114 114 115 116 118 121 125 125 124 122 119 118 113 109 106 101 96 92 89 87 89 91 93 89 78 58 56 65 71 73 68 70 72 75 82 82 80 78
171 173 171 169 172 168 163 160 160 160 158 156 153 152 149 147 146 144 143 142 142 141 141 139 138 136 134 133 131 130 127 126 124 122 120 120 122 122 122 121 121 120 119 118 118 119 117 116 112 110 115 115 115 121 124 124 122 118 114 110 107 103 98 93 88 82 75 74 76 83 87 76 66 67 69 69 71 68 71 72 66 67 70 77 79
167 170 169 169 172 168 164 162 161 161 160 157 155 154 151 150 148 146 145 145 145 143 142 140 138 136 134 134 132 131 128 126 124 123 122 122 123 122 122 122 122 120 118 119 120 120 120 119 114 113 115 112 111 113 117 120 117 114 110 106 103 100 96 91 84 78 68 64 62 61 67 70 77 78 73 71 72 64 64 75 74 71 70 70 75
168 168 168 169 170 168 164 163 162 162 161 159 157 155 153 151 149 148 147 147 147 146 145 142 141 139 137 135 133 131 128 127 126 125 125 124 124 123 122 122 122 121 120 120 120 121 122 119 117 121 119 115 115 114 114 114 111 109 105 100 95 91 85 79 74 70 62 57 53 56 62 65 85 93 86 78 78 72 61 67 72 71 69 64 66
167 166 167 169 169 168 165 164 163 163 162 160 158 156 154 152 151 150 149 149 148 147 146 144 143 141 139 137 134 131 130 130 129 128 127 126 126 125 124 124 124 124 123 121 122 123 120 116 118 125 125 124 123 120 118 114 111 105 98 90 81 76 68 63 58 52 49 50 46 49 56 63 90 99 95 83 80 82 69 70 77 73 73 70 69
165 165 167 169 169 168 167 166 164 164 163 162 160 157 155 153 152 151 150 150 149 148 146 145 143 142 140 137 136 134 133 132 132 131 130 130 129 127 125 125 126 128 127 125 125 121 115 114 118 123 126 129 127 123 118 113 108 95 82 70 58 52 46 46 46 40 35 44 42 44 52 64 91 98 97 92 86 83 71 73 84 81 80 78 75
164 165 167 169 169 168 168 167 166 165 164 163 161 158 156 154 154 153 152 151 149 148 147 146 144 142 141 139 138 137 136 135 135 134 134 134 132 129 127 126 127 129 130 130 127 120 115 114 117 121 126 130 127 121 115 109 102 88 73 60 48 39 34 37 41 45 38 37 44 46 55 68 91 95 100 101 90 71 62 66 76 80 82 81 78
164 165 168 170 170 168 168 168 167 166 165 165 162 160 157 156 155 154 154 152 151 149 148 147 145 143 142 141 140 140 140 138 138 138 138 136 134 132 129 128 128 130 132 133 130 123 119 119 121 123 128 130 127 120 111 104 97 85 72 63 51 37 32 39 42 53 64 45 60 62 63 73 96 98 102 102 88 65 59 64 74 84 88 89 85
165 166 169 171 169 168 169 169 168 167 167 166 163 161 159 157 156 156 155 154 152 151 150 148 146 145 144 144 143 143 143 142 141 141 141 139 137 136 133 131 131 130 130 133 132 130 126 126 128 129 132 132 129 121 110 98 90 80 72 65 49 32 32 47 56 73 78 67 74 90 89 88 106 106 109 99 80 66 63 67 70 77 79 84 91
165 167 170 170 169 168 170 169 169 168 167 168 165 162 161 159 157 157 157 156 154 153 152 150 147 148 147 147 146 145 146 145 144 144 143 142 141 139 136 135 132 128 128 131 135 139 137 134 134 135 135 134 132 125 112 95 82 75 70 62 48 36 35 54 84 101 87 77 78 90 107 111 124 109 122 117 67 66 62 66 65 69 70 77 88
166 168 170 169 169 170 171 170 170 169 169 169 166 163 162 160 159 159 159 157 155 154 154 151 150 150 149 150 148 148 149 148 146 146 146 146 146 142 137 136 135 134 139 142 142 144 141 138 138 140 138 137 137 131 117 97 82 74 68 61 53 45 47 66 102 111 89 77 80 84 104 120 135 104 125 205 45 63 57 61 62 66 67 68 73
166 168 169 167 169 172 172 172 171 170 170 170 167 164 164 162 161 160 160 159 156 155 155 153 153 152 152 152 151 151 152 151 150 149 149 151 149 143 139 138 138 141 147 148 145 144 143 142 142 143 142 140 141 137 125 103 86 77 67 62 60 54 55 66 87 98 74 63 67 75 89 108 133 103 119 203 349 58 56 62 61 66 71 64 59
164 167 167 167 169 173 173 172 171 171 171 171 168 166 166 164 162 162 162 160 158 157 156 155 155 155 155 155 155 155 156 155 155 153 153 156 152 147 144 139 135 136 140 143 144 147 147 146 144 145 147 145 144 141 133 114 91 80 69 61 62 58 56 61 69 66 40 28 25 48 68 82 104 89 98 129 123 113 60 63 56 62 71 65 54
165 166 166 168 170 172 172 172 171 172 172 172 170 167 168 166 164 163 163 162 160 158 157 156 156 157 158 158 159 159 160 159 158 155 157 160 157 152 146 138 132 127 129 137 145 150 151 149 148 148 150 150 147 145 141 123 96 81 72 62 56 57 56 55 56 51 29 8 348 335 348 29 60 68 80 94 118 218 229 22 48 54 60 71 61
166 166 166 168 170 171 172 172 171 172 173 173 170 169 169 167 165 164 164 164 162 160 158 157 158 160 160 161 163 163 164 164 160 157 160 163 161 156 149 141 134 129 132 139 148 155 155 155 153 151 151 152 150 151 146 128 106 88 79 66 48 45 50 48 43 37 29 16 355 326 299 292 298 345 53 81 113 220 236 252 354 44 48 78 81
165 164 166 169 170 170 171 172 172 172 172 172 170 170 170 169 167 166 166 166 164 161 159 159 161 162 163 165 166 167 167 167 163 160 163 164 162 159 154 148 141 138 144 151 159 163 163 162 158 153 151 150 149 148 143 136 132 109 79 57 34 22 28 32 29 22 16 9 2 343 299 276 279 287 305 20 11 263 249 248 276 347 29 66 106
162 164 167 170 170 171 172 172 172 173 171 170 171 171 172 171 169 167 167 168 165 161 161 162 163 164 165 167 168 169 171 169 165 164 166 166 167 167 162 156 153 153 160 164 168 170 171 168 165 158 150 146 143 142 147 155 170 156 45 21 13 4 3 7 7 7 5 358 354 353 332 279 267 276 274 309 325 279 266 258 271 297 310 301 306
162 166 169 171 171 172 173 173 174 174 172 171 172 172 172 173 170 167 167 167 165 163 164 163 165 166 165 167 169 170 173 172 169 169 170 173 175 174 170 165 163 165 175 173 172 174 174 173 172 166 158 152 149 150 159 168 187 225 282 317 344 348 347 349 347 345 349 348 346 350 346 309 256 262 267 287 310 280 273 266 271 287 289 285 290
164 168 170 172 172 173 174 175 176 175 174 173 171 171 173 173 170 168 168 167 165 165 165 164 166 167 168 170 170 171 173 173 173 173 174 179 182 180 177 172 172 177 181 176 174 177 176 176 176 174 174 171 170 168 173 187 222 270 302 315 326 333 334 337 336 330 330 337 337 340 342 331 275 252 258 281 300 280 274 272 274 283 286 285 287
167 170 172 173 174 175 175 176 177 177 177 174 172 172 174 173 170 169 168 167 166 167 167 166 168 169 170 173 174 174 175 175 176 177 179 185 188 186 182 178 183 183 179 177 176 179 178 176 177 181 188 191 192 191 194 222 277 310 324 324 318 318 320 326 330 324 319 325 325 324 327 327 302 250 248 283 296 279 276 276 277 280 283 285 284
170 172 174 175 174 176 177 177 178 179 179 176 174 173 174 173 170 169 169 169 168 169 169 170 171 171 173 177 179 180 181 181 181 182 185 191 192 187 186 186 192 187 175 176 177 180 179 176 178 186 194 200 205 209 226 266 311 326 329 319 306 304 309 315 318 312 309 311 311 311 308 308 294 248 241 281 295 282 275 276 278 281 282 282 283
172 174 175 176 176 177 178 179 178 180 180 178 176 175 175 174 170 170 171 170 170 171 173 174 174 174 176 181 184 185 186 186 185 187 190 193 191 188 190 195 199 195 179 175 179 181 182 182 186 191 197 205 216 234 270 305 318 321 315 304 294 293 298 301 302 299 299 301 305 310 306 303 278 242 238 271 291 284 279 282 281 284 288 285 287
173 174 175 176 178 178 179 180 180 181 181 179 178 177 178 175 171 172 172 171 173 175 176 176 177 178 180 184 188 188 189 189 188 191 195 195 191 191 196 202 202 201 189 177 180 184 187 190 193 200 207 219 238 267 295 309 308 313 315 303 294 295 297 295 296 301 304 298 304 316 311 312 285 233 231 259 283 284 291 291 281 285 294 292 292
170 171 175 178 180 180 181 180 181 182 182 181 179 179 180 176 173 174 173 172 175 177 179 179 180 183 184 188 192 191 189 188 190 195 198 195 193 197 202 206 207 207 199 185 184 187 192 197 204 211 220 233 253 284 295 290 280 299 331 329 314 301 290 290 297 307 317 306 311 320 309 315 301 232 218 249 272 282 302 299 290 300 310 313 316
168 173 176 178 180 181 182 181 181 183 183 181 180 180 181 178 176 176 174 175 177 178 181 182 183 186 188 191 193 193 191 189 193 198 198 195 197 203 206 211 212 212 207 196 191 190 194 201 208 215 223 229 244 279 282 279 283 311 339 351 346 301 276 286 294 304 312 302 311 317 296 299 289 220 196 236 260 279 305 313 323 346 341 342 346
169 174 177 177 180 182 183 183 181 183 183 182 181 181 181 180 179 178 176 177 180 180 182 184 185 189 191 193 194 196 196 193 196 200 199 199 202 207 211 215 217 216 213 205 198 195 197 203 208 212 215 216 240 275 273 273 297 324 337 344 336 309 302 305 296 291 290 286 298 300 259 242 242 192 197 226 229 253 297 356 21 21 356 352 353
168 174 177 178 180 182 184 184 182 182 183 183 183 183 182 181 181 181 179 179 182 182 184 186 188 191 194 196 196 199 198 196 199 203 204 204 207 211 215 220 220 219 218 212 203 199 200 203 208 205 200 209 254 252 218 295 313 314 318 326 327 321 320 322 301 277 270 275 294 291 267 228 201 194 213 214 186 205 93 55 56 46 8 354 354
171 176 177 179 181 183 184 184 184 184 184 185 184 184 184 182 182 184 183 181 183 184 186 188 191 194 197 198 198 200 199 200 202 206 208 208 210 214 217 222 222 220 219 215 208 202 202 203 202 195 193 214 213 174 168 314 304 296 305 319 336 348 344 338 308 260 251 296 320 323 293 172 179 205 223 192 179 190 107 89 72 47 12 1 10
173 175 177 179 182 184 185 185 185 185 186 186 185 185 186 184 184 185 186 185 184 186 188 191 193 196 198 199 200 201 200 202 207 211 215 214 213 214 215 217 217 217 217 215 212 207 202 198 192 188 202 206 176 180 258 297 293 284 298 318 352 21 12 9 341 269 282 293 299 308 246 175 183 201 213 178 188 179 126 113 77 41 12 21 27
173 175 178 180 182 184 186 186 187 186 186 186 186 187 188 186 186 186 186 187 187 188 191 194 196 197 200 199 199 202 202 205 210 213 216 213 211 210 211 214 215 215 216 215 214 209 198 191 187 192 207 197 185 234 290 301 302 289 288 286 224 337 340 343 324 299 294 291 296 292 140 137 165 175 177 181 188 165 133 113 85 35 17 33 30
174 177 178 179 182 185 186 187 188 187 187 188 186 188 190 188 188 187 186 188 190 192 195 197 198 198 200 199 200 203 203 207 211 212 212 210 209 211 215 220 220 216 218 219 216 208 196 190 191 198 198 193 202 258 286 294 301 293 273 234 224 254 280 310 316 312 312 313 310 253 162 123 118 150 168 173 173 159 137 117 164 261 10 50 48
175 177 178 179 182 184 185 187 188 188 188 189 188 189 190 189 189 189 187 188 191 195 198 200 200 199 200 201 201 204 206 208 210 211 212 213 215 219 225 229 225 221 223 223 216 205 198 197 200 204 198 195 223 262 273 286 303 286 237 208 207 232 272 308 312 312 312 313 329 259 193 170 135 140 156 160 165 160 151 158 204 256 84 85 62
173 176 178 180 182 183 184 186 189 189 189 190 189 190 191 189 190 191 190 190 193 199 202 203 202 201 201 202 203 206 209 210 211 212 215 218 223 227 232 232 227 224 225 222 213 204 204 207 210 217 211 207 236 248 232 208 91 138 172 183 207 253 291 281 277 314 319 308 322 136 164 159 142 138 141 141 144 146 152 169 190 187 110 94 52
174 176 178 180 182 183 185 187 190 190 190 191 190 189 192 191 191 193 192 193 196 202 205 205 206 204 204 203 204 208 212 213 211 212 216 221 227 232 234 230 225 223 223 220 214 211 214 216 221 226 217 217 234 225 200 192 189 192 203 246 284 291 281 223 279 328 342 345 151 144 144 143 137 138 138 136 141 148 157 167 161 124 107 90 63
177 176 178 179 180 183 186 188 190 191 191 192 191 189 190 192 193 195 195 197 200 204 207 208 208 208 207 205 206 209 213 215 212 211 216 224 230 235 234 229 226 225 224 223 225 226 226 225 225 221 215 220 227 217 211 226 238 252 271 290 296 293 260 226 316 347 27 87 141 144 137 137 137 137 138 143 148 152 158 162 152 133 123 100 76
179 178 178 178 179 183 187 190 192 193 191 193 193 191 192 195 196 197 199 201 203 205 208 211 210 210 210 209 209 211 213 216 215 214 218 225 233 235 232 229 230 231 232 237 240 237 234 228 215 208 215 223 224 222 227 238 252 269 287 297 295 282 231 222 344 42 103 116 142 145 141 139 136 137 140 149 159 161 159 161 158 151 144 115 83
180 179 178 179 180 182 187 192 193 193 193 193 194 193 194 198 198 199 202 204 206 207 210 214 213 212 212 211 212 213 215 217 216 217 220 226 232 233 232 232 235 240 243 248 246 238 233 220 208 210 219 221 226 233 237 241 259 282 295 298 287 251 214 218 37 115 124 120 146 152 145 140 137 142 148 156 167 170 161 155 156 150 138 111 83
179 179 179 180 181 183 188 193 193 193 193 194 195 194 195 199 201 202 204 206 208 208 211 216 216 216 214 213 215 216 217 218 218 219 222 226 228 229 231 234 238 242 246 249 244 237 228 212 211 221 223 222 228 234 236 241 262 292 307 306 256 223 207 184 98 128 129 123 150 153 146 143 145 151 156 162 164 161 155 153 157 146 127 112 91
178 177 179 181 182 184 188 192 193 194 193 193 194 195 196 200 201 203 206 208 209 210 213 217 220 220 217 215 217 218 219 220 221 222 223 224 224 225 228 234 239 240 243 244 239 237 229 217 219 225 226 225 222 225 230 236 240 242 14 6 266 174 174 159 126 126 131 134 150 154 151 152 157 159 159 161 160 155 152 150 145 128 115 107 82
177 178 180 183 184 185 188 191 193 193 193 193 193 194 196 197 200 202 204 206 208 210 213 218 221 221 218 217 219 220 221 222 224 224 225 224 224 226 229 237 241 239 240 240 238 242 237 228 226 226 227 225 221 223 225 218 205 174 65 57 85 99 106 142 142 133 138 144 154 158 160 162 162 161 160 161 160 155 149 141 131 119 112 91 44
177 180 182 184 185 187 189 191 191 192 193 194 194 195 197 197 198 200 201 204 207 210 213 217 219 219 218 218 220 220 222 224 226 227 230 229 230 231 232 238 242 240 241 241 241 244 240 232 228 226 225 224 224 222 217 211 185 161 118 85 86 86 81 90 114 134 141 145 158 163 163 165 162 159 160 160 155 147 140 133 126 116 102 74 36
178 182 184 185 186 189 191 191 190 191 193 194 195 196 199 199 199 200 200 202 207 213 216 216 217 218 219 219 220 221 223 227 229 231 235 236 236 236 235 238 239 238 241 244 245 244 240 233 229 230 225 218 220 219 218 211 179 148 121 103 103 88 64 61 73 90 124 138 147 158 162 161 158 158 160 155 148 141 134 128 119 107 89 62 44
179 183 185 186 189 191 193 191 190 191 193 194 196 198 200 201 202 204 204 205 210 215 217 219 219 220 220 219 220 222 226 231 234 236 238 239 238 237 237 237 235 235 242 248 250 246 240 234 231 232 226 215 213 213 213 208 191 175 138 98 127 129 79 58 63 59 85 123 126 142 157 157 157 158 155 147 142 137 129 124 111 93 77 57 47
184 185 187 189 191 192 193 191 190 191 193 195 197 199 198 199 200 201 203 205 210 213 215 219 221 222 221 220 220 222 229 236 238 241 240 238 238 239 239 235 232 237 244 250 256 251 240 236 235 232 227 220 214 208 201 196 193 196 191 155 135 141 194 181 94 53 62 95 111 133 147 153 157 157 149 140 136 132 125 117 103 85 70 60 54
189 189 190 191 191 193 193 192 191 191 193 196 198 198 196 196 194 193 193 196 203 209 211 215 218 220 222 222 221 224 231 237 240 242 240 238 239 242 239 230 230 239 246 251 257 251 239 237 236 232 230 225 219 210 195 186 182 194 206 203 208 213 176 166 150 57 61 76 96 123 139 148 152 150 144 138 133 128 122 111 96 83 72 65 61
191 190 191 192 192 194 193 192 191 190 193 196 197 197 196 195 195 195 195 197 205 211 213 217 220 221 223 224 225 227 232 236 239 240 239 239 241 245 240 229 230 240 244 246 250 248 240 236 234 235 234 229 223 215 197 185 175 178 196 201 212 199 171 167 167 153 98 67 82 105 125 142 145 142 140 136 132 126 118 107 93 82 75 69 66
190 189 190 192 193 194 194 193 192 191 193 196 197 198 198 196 196 199 202 205 210 214 217 219 223 225 225 226 226 229 233 236 237 238 237 238 241 246 242 231 231 238 240 241 247 247 239 233 233 237 238 230 226 222 205 193 185 179 178 182 186 173 170 177 173 156 133 89 85 94 112 128 136 137 136 133 129 123 113 102 91 82 78 75 73
187 189 191 192 192 193 193 192 192 191 193 196 197 200 201 199 200 202 206 209 211 214 217 219 223 226 227 226 226 227 231 234 236 238 238 238 240 245 243 233 231 237 237 238 244 245 238 236 237 237 237 233 233 233 217 203 201 196 187 182 174 164 164 173 172 156 124 129 154 119 119 121 123 130 134 132 125 119 112 102 95 88 82 82 83
188 190 190 190 190 191 192 192 193 192 193 196 197 200 202 203 204 206 208 208 209 211 213 216 220 223 224 224 224 224 227 231 235 238 239 238 237 242 242 235 233 236 236 237 241 242 240 239 236 232 236 241 246 249 237 218 212 208 200 191 176 165 159 161 173 163 126 112 129 151 150 138 128 129 136 136 128 121 115 105 99 95 89 89 91
186 187 188 190 189 190 191 192 192 192 192 195 197 201 203 205 208 209 210 209 207 206 206 209 213 216 218 219 220 221 224 228 234 239 240 238 236 238 240 238 237 238 238 239 241 243 244 239 234 233 237 238 239 244 240 224 211 207 205 203 196 189 186 193 198 187 163 128 129 147 157 146 135 139 148 146 135 128 120 113 108 102 97 97 95
Height
762 765 768 771 774 775 778 778 780 781 783 785 786 788 789 790 791 792 793 795 796 798 799 800 801 803 804 805 806 807 808 809 811 812 814 815 817 818 819 820 821 822 823 823 824 825 826 826 827 828 828 829 829 830 830 830 830 830 830 830 831 831 831 832 832 833 833 833 834 834 834 834 834 833 833 833 832 832 832 832 832 832 831 831 831
756 763 767 770 773 775 777 778 780 781 783 784 786 788 789 790 791 792 794 795 797 798 799 801 802 803 805 806 807 807 809 810 812 813 815 816 817 819 820 821 822 823 823 824 825 826 827 827 828 828 829 829 830 831 831 831 831 831 831 831 832 832 832 832 833 833 833 834 834 834 834 834 834 834 834 834 833 833 833 833 832 832 832 832 832
755 762 766 769 773 774 776 777 779 781 783 784 786 787 789 790 791 793 794 796 797 798 800 801 803 804 805 806 807 808 810 811 813 814 815 817 818 820 821 822 823 824 824 825 826 826 827 828 829 829 830 830 831 831 832 832 832 832 832 832 832 832 832 833 833 834 834 834 834 834 834 834 834 834 834 834 834 834 834 834 833 833 833 833 833
756 761 765 769 772 774 776 777 779 780 782 784 786 787 789 791 792 793 794 796 797 799 800 802 803 804 806 807 808 809 811 812 813 814 816 818 819 820 821 822 823 824 825 826 826 827 828 828 829 830 830 831 832 832 833 833 833 833 833 833 833 833 833 833 834 834 834 834 835 834 834 834 834 835 835 835 835 835 835 835 834 834 834 834 834
755 760 764 768 771 774 775 777 779 780 782 783 785 787 789 791 792 793 795 797 798 799 801 802 804 805 807 808 809 810 812 813 814 815 817 818 819 821 822 823 824 825 826 827 827 828 828 829 830 830 831 832 833 833 834 834 834 834 834 834 834 834 834 834 834 834 835 835 835 835 835 835 835 835 835 835 836 836 835 835 835 835 835 835 835
754 759 763 767 770 773 775 777 779 781 782 783 785 787 789 791 792 794 795 797 798 800 801 802 804 806 807 808 810 811 812 813 815 816 817 819 820 821 822 823 824 826 827 827 828 828 829 829 830 831 832 833 834 834 835 835 835 835 835 835 835 835 835 835 835 835 835 836 836 836 836 835 835 835 836 836 836 836 836 836 836 835 835 835 835
753 759 762 766 769 772 775 777 779 781 782 783 785 787 788 790 792 793 795 796 798 800 801 803 804 806 807 809 810 811 813 814 815 816 818 819 820 822 823 824 825 826 827 828 828 829 829 830 831 832 833 833 834 835 836 836 836 836 836 836 836 836 835 835 835 836 836 836 836 836 836 836 836 835 836 836 836 836 836 836 836 836 836 836 835
755 759 762 765 768 771 774 776 779 780 782 784 785 787 788 790 792 793 795 796 798 800 802 803 805 806 808 809 810 812 813 814 816 817 818 819 821 822 823 824 825 827 828 828 829 829 830 831 832 833 833 834 835 836 837 837 836 837 837 837 836 836 836 836 836 836 836 836 836 837 837 837 837 836 836 836 836 836 836 836 836 836 836 836 836
755 759 762 765 768 771 774 776 778 780 782 784 785 787 788 790 791 793 795 796 798 800 802 804 805 807 808 809 811 812 813 814 816 817 819 820 821 822 823 824 826 827 828 829 829 830 831 831 832 833 834 835 836 837 838 838 837 837 837 837 837 836 836 836 836 837 837 837 837 837 837 837 837 837 837 837 837 836 836 836 836 836 836 836 836
755 759 762 764 768 771 774 776 778 780 782 783 785 786 788 789 791 793 794 796 798 800 802 804 806 807 809 810 811 812 813 815 816 817 819 820 822 823 824 825 826 827 828 829 830 830 831 832 832 834 835 835 836 837 838 838 838 838 838 838 837 837 836 837 837 837 837 837 837 838 838 838 838 838 837 837 837 837 837 836 836 836 836 836 836
755 759 762 764 768 771 773 776 778 780 782 783 785 786 788 789 791 793 794 796 798 800 802 804 806 807 809 810 811 813 814 815 816 818 819 821 822 823 824 825 826 827 829 830 830 831 831 832 833 834 835 836 837 838 839 839 839 839 839 838 838 838 837 837 837 838 838 838 838 838 838 838 839 838 838 838 838 837 837 837 836 836 836 836 836
756 759 761 764 767 770 773 775 777 780 781 783 785 786 788 789 791 792 794 796 798 800 802 804 806 808 809 810 812 813 814 815 817 818 820 821 822 824 825 826 826 827 829 830 830 831 832 833 834 835 836 837 837 838 839 839 839 839 839 839 839 838 837 837 837 838 838 839 839 839 839 839 839 839 839 839 838 838 837 837 837 836 836 836 836
756 759 762 765 767 770 772 775 777 779 781 783 784 786 788 789 791 792 794 796 798 800 802 804 806 808 809 811 812 813 814 816 817 818 820 821 823 824 825 826 827 828 828 829 830 831 832 833 834 835 836 837 838 838 839 840 840 840 840 840 840 839 838 838 838 839 839 839 839 839 839 839 839 839 839 839 839 839 838 838 837 837 837 836 836
758 760 763 765 768 771 772 775 777 779 781 783 784 786 788 789 790 792 794 796 798 800 802 804 806 808 809 811 812 813 815 816 818 819 821 822 823 825 825 827 827 828 829 830 830 831 832 833 834 835 836 837 838 839 839 840 840 840 840 840 840 839 839 839 839 840 840 839 840 840 839 839 839 839 839 839 839 839 839 838 838 837 837 837 836
761 762 765 767 769 772 774 776 777 780 781 783 784 786 788 789 790 792 794 796 798 800 802 804 806 808 809 811 812 814 815 816 818 820 821 822 824 825 826 827 828 829 829 830 831 832 832 833 834 835 837 837 838 839 839 840 840 840 840 840 840 840 840 840 840 840 840 840 840 840 840 840 839 839 839 839 839 839 839 839 838 838 837 837 836
763 765 767 769 771 773 775 777 779 781 782 784 785 787 788 789 791 792 795 797 798 801 803 805 806 808 810 811 813 814 816 817 819 820 821 823 824 825 826 827 828 829 829 830 831 832 833 834 835 835 836 837 838 839 839 840 840 840 840 840 840 840 840 840 840 840 840 840 839 839 840 840 840 839 839 839 839 839 839 839 839 838 838 837 837
764 767 769 771 773 774 776 778 780 782 783 785 786 787 789 790 792 793 795 797 799 801 803 805 807 809 810 812 813 815 816 818 819 820 822 823 824 825 826 827 828 829 830 830 831 832 833 834 835 836 836 837 838 838 839 840 840 840 840 840 840 840 840 840 840 840 840 839 839 839 839 839 840 840 839 839 839 839 839 839 839 838 838 837 837
766 768 770 772 774 776 777 779 780 782 783 785 787 788 789 790 792 794 796 797 799 801 803 805 807 809 810 812 814 815 817 818 819 821 822 823 824 826 826 828 828 829 830 830 831 832 833 834 835 836 837 837 838 838 838 839 839 839 839 840 840 840 839 839 840 840 839 839 839 838 838 838 839 839 839 839 839 839 839 839 839 839 838 837 837
766 768 770 772 774 776 778 780 781 782 783 784 786 787 789 790 792 794 796 798 800 802 804 805 808 809 811 812 814 815 817 818 820 821 822 823 825 826 826 827 828 829 830 830 831 832 833 834 835 836 836 837 837 838 838 838 838 838 838 839 839 839 839 839 839 839 839 839 838 838 838 838 838 839 839 839 839 839 839 839 839 838 838 837 836
766 768 770 772 774 776 778 780 782 783 784 784 786 787 789 790 792 794 796 799 800 802 804 806 808 810 811 813 814 815 817 818 820 821 822 824 825 826 826 827 828 829 829 830 831 832 832 833 834 835 836 837 837 837 837 838 838 838 838 838 838 838 838 838 838 838 838 838 838 838 837 837 837 838 838 839 839 839 839 838 838 838 837 837 836
765 767 769 771 773 776 777 780 781 783 784 785 786 787 789 790 792 794 796 799 801 803 804 806 808 810 812 813 814 815 817 818 820 821 822 824 825 825 826 827 828 828 829 830 830 831 832 833 834 835 835 836 836 837 837 837 838 838 838 838 837 837 837 837 837 837 837 837 837 837 837 837 837 837 838 838 839 838 838 838 838 837 837 836 835
764 766 768 770 772 775 777 779 781 783 784 786 786 787 789 790 792 794 796 798 801 803 804 806 808 809 811 812 814 815 816 818 819 821 822 823 824 825 826 827 828 828 829 829 830 831 832 833 833 834 835 835 836 836 837 837 837 837 837 837 837 837 837 837 836 837 837 837 837 837 836 836 836 836 837 838 838 838 838 838 837 837 836 836 836
761 764 766 768 771 773 775 778 780 782 784 786 787 787 788 789 791 794 796 798 800 803 804 806 807 809 811 812 813 814 816 818 819 821 822 823 824 825 826 827 828 828 829 829 830 831 832 832 833 834 834 835 836 836 837 837 837 836 837 836 836 836 836 836 836 836 836 836 836 836 835 835 835 836 837 837 838 837 837 837 837 836 836 836 837
758 761 764 767 769 772 774 777 779 781 783 785 787 788 788 789 790 793 795 797 800 802 804 806 807 809 810 811 813 814 816 818 819 820 821 823 823 824 825 826 827 828 829 829 830 831 832 832 833 834 834 835 836 836 836 836 836 836 836 836 835 836 836 836 835 835 835 835 835 835 835 835 835 835 836 837 837 837 837 837 836 836 836 836 837
757 761 763 766 768 771 773 775 778 780 782 784 785 787 788 790 791 792 794 796 799 801 803 805 807 808 810 811 813 814 816 817 819 819 820 822 823 824 825 826 827 828 828 829 830 831 832 832 833 834 834 835 835 836 836 836 836 836 835 835 835 835 835 835 835 835 835 834 834 834 834 834 834 835 835 836 837 837 836 836 836 836 836 836 835
756 759 762 764 767 770 772 774 777 779 781 783 784 786 788 790 791 792 794 796 798 800 802 805 806 808 809 811 812 814 815 817 818 818 820 821 822 823 824 825 826 827 828 829 830 830 831 832 833 833 834 835 835 835 835 835 835 835 835 834 834 834 834 834 834 834 834 834 834 834 834 834 834 834 835 836 836 836 836 836 836 836 836 835 835
755 758 761 764 766 768 771 773 775 778 780 782 784 786 787 789 790 791 793 795 797 798 801 803 805 807 808 810 811 813 814 816 817 818 819 820 821 822 823 824 825 827 827 828 829 830 831 831 832 833 834 834 835 835 835 835 835 834 834 834 834 834 834 834 834 834 834 834 834 834 833 833 834 834 835 835 836 836 836 835 835 836 835 835 834
754 757 759 762 764 767 770 772 774 777 779 782 784 786 787 788 790 791 792 794 796 797 799 802 804 806 807 809 810 812 813 814 816 816 818 819 820 821 822 823 825 826 827 827 828 829 830 831 832 833 833 834 834 834 834 834 834 834 834 834 833 833 833 833 833 833 833 833 833 833 833 833 833 834 834 835 835 835 835 835 835 835 835 834 834
752 755 758 760 763 766 769 771 773 776 778 781 784 786 787 788 789 791 792 793 795 797 798 800 803 804 806 808 809 811 812 813 814 816 817 818 820 821 822 823 824 825 826 827 827 828 829 830 831 832 833 833 833 834 834 834 834 834 834 833 833 833 833 832 832 832 833 833 833 833 833 833 833 833 834 834 835 835 835 835 835 835 834 834 834
751 754 757 759 762 765 767 769 772 775 778 780 783 785 787 788 788 789 791 792 794 796 798 799 801 803 804 806 808 810 811 813 813 815 816 817 819 820 821 822 823 824 825 826 827 828 829 830 831 832 832 832 833 833 833 833 833 833 833 833 833 832 832 832 832 832 832 832 832 832 832 832 832 833 833 834 834 835 835 835 835 835 834 834 834
749 752 755 757 760 763 765 768 771 774 777 779 782 784 786 787 788 788 790 791 793 795 796 798 799 801 803 805 807 809 810 812 813 814 815 817 818 820 821 822 822 823 824 825 826 827 828 829 830 831 832 832 832 832 833 832 832 833 832 832 832 832 832 832 832 832 832 832 832 832 832 832 832 832 833 833 834 834 835 835 834 834 834 834 834
746 749 752 755 758 761 764 767 770 773 776 779 781 783 785 787 788 788 789 791 792 794 795 796 798 800 802 804 806 808 809 811 812 813 815 817 818 819 820 820 822 823 824 825 826 827 828 829 830 830 831 831 832 832 832 832 832 832 832 832 831 832 832 832 832 831 831 831 831 831 831 832 832 832 832 833 834 834 834 834 834 834 834 834 834
745 749 752 754 757 760 764 767 770 773 775 778 780 782 784 786 787 788 788 790 791 792 794 795 796 798 800 803 805 807 808 810 811 813 814 816 817 818 819 819 821 822 823 824 825 826 827 828 829 830 830 831 831 832 832 832 831 831 831 831 831 831 831 831 831 831 831 831 831 831 831 831 831 832 832 833 833 834 834 834 834 834 834 834 834
744 748 750 753 757 760 763 767 769 772 774 777 780 782 783 785 786 787 788 789 790 791 793 794 796 798 800 802 804 805 807 808 810 812 813 814 815 816 817 818 820 821 822 823 824 825 826 827 828 829 830 830 831 831 832 831 831 831 831 831 831 831 831 831 831 831 831 830 831 830 831 831 831 832 832 833 833 833 834 834 834 834 834 834 833
742 745 749 752 756 760 763 766 768 771 773 776 779 781 783 784 785 786 787 788 789 790 792 793 795 797 799 801 802 804 805 807 809 811 812 813 814 815 816 817 819 820 821 822 824 825 826 827 828 829 829 830 831 831 831 831 831 832 832 831 831 831 831 831 830 830 830 830 830 830 830 831 831 832 832 833 833 834 834 834 834 834 834 834 834
740 743 748 751 755 759 762 765 768 770 772 775 778 780 782 783 784 784 785 786 787 789 791 792 795 797 798 800 801 802 804 806 808 809 811 812 813 814 816 817 818 819 821 822 823 824 825 827 827 828 829 830 830 831 831 831 831 831 831 831 831 831 831 830 830 830 830 830 830 830 831 831 832 832 833 833 833 834 834 834 834 835 835 834 834
739 742 746 750 754 757 761 764 767 769 771 774 776 778 780 781 782 783 784 785 786 788 790 792 794 796 797 798 799 801 802 804 806 808 810 811 813 814 815 817 818 819 821 822 823 824 825 826 827 828 829 829 830 830 830 831 831 831 831 831 831 830 830 830 830 829 830 830 830 831 831 831 832 833 833 833 834 834 834 834 835 835 835 835 835
739 742 746 749 752 756 760 763 766 768 770 772 775 777 779 780 781 782 783 783 785 787 789 791 793 795 796 797 798 799 801 803 805 807 809 811 813 814 815 817 818 819 821 822 823 824 825 826 827 827 828 829 829 830 830 830 830 831 831 830 830 830 830 830 830 829 830 830 831 831 832 832 832 833 833 834 834 834 834 835 835 835 836 836 836
739 742 746 749 752 755 759 762 765 766 769 771 773 775 777 778 780 781 782 783 784 786 788 790 792 793 795 796 797 798 800 802 805 807 809 811 812 814 815 816 818 819 820 821 822 823 824 825 826 827 828 828 829 829 829 830 830 830 830 830 830 830 830 830 830 829 830 830 831 831 832 832 833 833 834 834 834 835 835 835 836 836 836 836 836
739 742 745 748 750 754 758 761 763 765 768 770 771 774 775 777 778 780 781 782 783 785 787 789 790 792 793 794 795 797 800 802 804 806 808 810 811 813 814 816 817 818 819 820 821 822 823 824 825 826 827 827 828 828 828 829 829 830 830 830 830 830 830 830 830 829 830 831 831 832 832 833 833 833 834 834 835 835 835 836 836 837 837 837 837
739 741 744 747 749 752 756 759 761 764 766 767 769 771 773 774 776 778 779 781 783 784 786 787 788 790 791 793 794 797 799 801 803 805 807 809 811 812 814 815 816 817 818 819 820 822 823 823 824 825 826 826 827 827 827 828 829 829 830 830 830 830 830 830 830 829 830 831 831 832 832 833 833 834 834 835 835 835 836 836 837 837 838 838 838
737 740 742 745 748 751 754 756 759 762 764 765 767 769 771 772 774 776 778 780 781 783 784 785 786 788 790 792 794 796 798 800 802 804 806 808 810 811 813 814 815 816 817 819 820 821 822 822 823 824 825 825 825 826 826 827 828 828 829 830 830 830 830 830 830 830 830 831 831 832 832 833 833 834 834 834 835 836 836 837 837 838 838 838 838
735 739 741 744 748 750 753 754 756 759 761 763 765 767 769 771 774 775 777 779 780 781 782 784 785 787 789 791 793 795 797 799 801 803 805 807 809 810 812 813 814 815 816 818 819 820 821 821 822 823 823 824 824 825 825 826 827 828 828 830 831 831 831 832 831 830 830 830 831 832 832 833 833 834 834 834 835 836 836 837 838 838 839 839 838
735 737 740 743 746 748 750 752 755 757 759 762 763 766 768 771 773 775 777 778 779 780 781 783 784 786 788 790 792 794 796 798 800 803 804 806 807 808 810 811 813 814 815 816 817 818 819 820 821 821 822 822 823 823 824 824 825 826 828 830 832 832 833 833 832 832 832 831 831 832 833 833 833 834 834 835 835 836 837 838 838 839 839 839 838
732 734 737 740 743 746 749 751 753 755 758 760 762 764 767 770 772 774 776 777 778 779 780 781 782 784 786 788 791 793 795 797 799 802 803 804 806 807 808 810 811 813 814 815 816 816 817 818 819 820 820 820 821 822 822 823 824 825 826 828 830 831 832 832 832 834 833 831 832 833 833 834 834 835 835 835 836 837 838 838 838 839 839 839 839
729 732 735 739 742 745 748 750 752 754 756 758 760 763 766 768 770 772 773 774 775 776 777 778 780 782 784 787 790 792 794 796 798 800 802 803 804 806 807 808 809 810 812 813 814 814 815 817 817 818 818 819 819 820 821 822 823 824 824 825 826 826 828 829 831 834 835 834 834 834 834 835 835 835 836 836 837 837 838 839 839 839 839 839 839
726 731 735 738 741 743 746 748 750 752 754 757 759 762 764 766 768 769 770 772 772 773 775 778 780 782 784 787 789 791 793 795 797 799 800 802 803 804 805 806 807 808 809 810 811 812 813 815 816 816 817 818 818 818 819 820 821 823 824 824 824 823 824 826 828 831 834 836 836 835 835 836 836 836 837 837 838 838 839 839 839 839 840 840 840
724 729 733 735 738 741 744 747 748 750 752 755 758 760 762 764 766 768 769 769 770 772 775 778 780 781 783 786 788 790 792 794 796 797 799 800 801 802 803 804 805 806 807 808 809 810 811 813 814 815 816 816 816 817 817 819 820 821 823 823 823 823 823 824 825 826 830 835 837 837 836 837 837 837 838 838 838 839 839 839 839 840 840 840 841
723 726 729 732 736 739 743 745 747 749 751 753 756 758 760 763 765 766 766 767 769 772 774 777 779 780 782 785 787 789 791 793 794 796 797 798 799 800 801 801 803 803 805 806 808 809 810 811 813 814 815 816 817 817 817 817 818 820 821 822 822 822 823 823 824 824 826 831 836 837 837 838 838 839 839 839 839 839 839 839 840 840 841 841 841
722 725 729 732 736 738 741 743 745 747 749 752 755 757 759 761 762 763 764 766 769 771 773 775 777 779 781 784 786 788 790 791 792 794 795 796 797 798 799 799 801 802 803 805 807 808 810 811 812 813 815 817 818 820 819 817 817 819 819 821 821 821 822 823 824 824 825 828 832 835 836 836 838 839 840 840 839 840 840 840 840 840 841 841 842
723 726 729 731 734 736 739 741 744 746 748 750 753 755 757 759 760 761 763 765 767 770 772 774 776 778 781 783 785 787 789 790 791 792 793 794 795 796 797 798 799 800 802 804 806 808 810 811 811 812 813 814 815 818 819 817 816 818 819 819 820 820 820 821 822 823 824 825 829 833 835 836 837 839 840 840 840 840 840 840 840 840 841 841 842